Torna al catalogo

ATLAS 5 CENTAUR DEB

LostHEO
NORAD 43964·DEBRIS·🇺🇸 United States

Lanciato Sep 17, 2014 da Cape Canaveral Space Force Station

Loading…

Prossimi Passaggi (prossime 24 ore)

TLE

ObsoletoSource: Space-Track

Epoca: Mar 11, 2023, 16:13 UTC

1 43964U 14055T   23070.67598382 -.00000067  00000-0  00000+0 0  9994
2 43964  20.8226 264.6242 4549670 307.3823  19.0688  1.83493061 30207

Traccia ATLAS 5 CENTAUR DEB in tempo reale con AllMySat

Download on the App Store